Weather Roundup
Issued by NWS Corpus Christi, TX

Home | Current Version | Previous Version | Text Only | Print | Product List | Glossary On
Versions: 1 2 3 4 5 6 7 8 9 10 11 12 13 14 15 16 17 18 19 20 21 22 23 24 25 26 27 28 29 30 31 32 33 34 35 36 37 38 39 40 41 42 43 44 45 46 47 48 49 50
000
ASUS44 KCRP 050110
HRRCRP

SOUTH TEXAS REGIONAL WEATHER ROUNDUP
NATIONAL WEATHER SERVICE CORPUS CHRISTI TX
800 PM CDT MON MAY 04 2015


TXZ229>244-050200-
...CORPUS CHRISTI AREA OBSERVATIONS...

CITY           SKY/WX    TMP DP  RH WIND       PRES   REMARKS
CORPUS CHRISTI MOCLDY    76  67  73 SE18G26   29.98R
NAS CORPUS CHR MOCLDY    75  69  81 SE21      29.98S
ROCKPORT       MOCLDY    76  68  76 E17       29.99S
KINGSVILLE NAS MOCLDY    77  70  79 SE15      29.96F
ALICE          PTCLDY    77  66  68 SE18      29.95F
FALFURRIAS     CLOUDY    77  66  68 E12G20    29.94S
$$

...VICTORIA AREA OBSERVATIONS...

CITY           SKY/WX    TMP DP  RH WIND       PRES   REMARKS
VICTORIA       CLEAR     74  65  73 SE13G22   30.01S
BEEVILLE       FAIR      75  67  76 SE15G21   29.98S
PLEASANTON     HVY RAIN  77  62  59 SE12G23   29.96S
SAN ANTONIO    MOCLDY    77  60  55 SE20      29.97F
$$

...LAREDO AREA OBSERVATIONS...

CITY           SKY/WX    TMP DP  RH WIND       PRES   REMARKS
LAREDO         CLOUDY    79  63  57 SE20      29.92F
COTULLA        PTCLDY    79  60  52 SE17G26   29.92S
DEL RIO        RAIN      74  67  78 E15G24    29.88S
MCALLEN        CLOUDY    81  67  62 SE16      29.93S
HEBBRONVILLE     N/A     77  64  65 E14       29.94S
$$

...OTHER TEXAS OBSERVATIONS...

CITY           SKY/WX    TMP DP  RH WIND       PRES   REMARKS
BROWNSVILLE    CLOUDY    77  70  79 E13       29.96R
HOUSTON        PTCLDY    74  58  57 SE12      30.04S
COL. STATION   CLEAR     76  55  48 SE10      30.01S
AUSTIN         MOCLDY    77  60  55 SE9G20    29.98S
WACO           PTCLDY    76  57  51 SE13      29.98F
FORT WORTH     MOCLDY    76  53  44 SE15      29.98F
WICHITA FALLS  PTCLDY    74  57  55 SE14      29.94S
LUBBOCK        TSTM      59  57  93 N12       29.98F
EL PASO        MOCLDY    75  51  43 N15       29.76R
$$

...MARINE OBSERVATIONS...

STATION/POSITION TIME  SKY/WX   TEMP    WIND        PRES    VSBY  WAVE   SWELL
                                AIR SEA DIR/SP/G                  HT/PER HT/PER
                 (UTC)          (F)     (DEG/KT/KT) (MB)    (MI)  (FT/S) (FT/S)
PORT ARANSAS     0100            75 77   90/ 18/ 21 1015.9F
BUOY 90 E PORT A 0050            75 75   90/ 17/ 19 1016.2F         4/ 5
BUOY 45 SE BAFFI 0050            75 76  100/ 16/ 19 1014.6F         4/ 6   2/ 8
BUOY 200 E PT IS 0050            78 77   80/ 16/ 17 1016.0S         2/ 6
BUOY 15 E GALVES 0050            75 76  110/ 16/ 17 1017.2F         3/ 5
$$


USA.gov is the U.S. government's official web portal to all federal, state and local government web resources and services.